Terminal Aerodrome Forecast
Issued by NWS

Home | Current Version | Previous Version | Text Only | Print | Product List | Glossary On
Versions: 1 2 3 4 5 6 7 8 9 10 11 12 13 14 15 16 17 18 19 20 21 22 23 24 25 26 27 28 29 30 31 32 33 34 35 36 37 38 39 40 41 42 43 44 45 46 47 48 49 50
000
FTAK31 PANC 240700 AAA
TAFASN
TAF AMD
PASN 240700Z 2407/2506 28015G22KT P6SM OVC012
      TEMPO 2407/2410 3SM BR OVC004
     FM241000 29016G25KT 3SM BR VCSH OVC004
     FM241500 30015KT 2SM BR OVC002
     FM242000 30011KT P6SM OVC006=

USA.gov is the U.S. government's official web portal to all federal, state and local government web resources and services.